When you browse on this site, cookies collect data to enhance your experience and personalize the content and advertising you see.
Visit our Privacy Policy to learn more. By continuing to use the site, you agree to this use of cookies and data.
  • In Austria
  • List of Countries
  • For 7 days
  • Water Temperature
  • Satellite Maps
  • Weather Map
  • News
  • Weather Widgets
  • user-avatar
    Login

    Hourly Weather Stow

    Today, 17 February, Sunday

    Time Temperature Precipitation Wind Pressure Humidity
    00:00 -6°C° 0 mm 2 mps 733 mmHg 77%
    01:00 -6°C° 0 mm 2 mps 733 mmHg 78%
    02:00 -7°C° 0 mm 3 mps 733 mmHg 78%
    03:00 -7°C° 0 mm 3 mps 732 mmHg 78%
    04:00 -7°C° 0 mm 3 mps 732 mmHg 78%
    05:00 -7°C° 0 mm 3 mps 731 mmHg 78%
    06:00 -8°C° 0 mm 3 mps 731 mmHg 77%
    07:00 -8°C° 0 mm 3 mps 731 mmHg 77%
    08:00 -7°C° 0 mm 3 mps 731 mmHg 71%
    09:00 -6°C° 0 mm 3 mps 730 mmHg 65%
    10:00 -5°C° 0 mm 3 mps 730 mmHg 59%
    11:00 -4°C° 0 mm 3 mps 730 mmHg 56%
    12:00 -2°C° 0 mm 3 mps 729 mmHg 54%
    13:00 -1°C° 0 mm 3 mps 729 mmHg 51%
    14:00 -2°C° 0.2 mm 3 mps 728 mmHg 58%
    15:00 -2°C° 0.2 mm 3 mps 727 mmHg 66%
    16:00 -2°C° 0.2 mm 3 mps 727 mmHg 74%
    17:00 -2°C° 0.3 mm 3 mps 726 mmHg 79%
    18:00 -2°C° 0.3 mm 2 mps 726 mmHg 85%
    19:00 -1°C° 0.3 mm 1 mps 726 mmHg 91%
    20:00 -1°C° 0.2 mm 1 mps 726 mmHg 92%
    21:00 -1°C° 0.2 mm 1 mps 726 mmHg 93%
    22:00 -1°C° 0.2 mm 1 mps 726 mmHg 95%
    23:00 -3°C° 0 mm 2 mps 726 mmHg 94%

    Tomorrow, 18 February, Monday

    Time Temperature Precipitation Wind Pressure Humidity
    00:00 -3°C° 0 mm 2 mps 726 mmHg 94%
    01:00 -5°C° 0 mm 3 mps 726 mmHg 94%
    02:00 -5°C° 0 mm 3 mps 727 mmHg 93%
    03:00 -5°C° 0 mm 3 mps 727 mmHg 91%
    04:00 -6°C° 0 mm 3 mps 728 mmHg 90%
    05:00 -6°C° 0 mm 3 mps 729 mmHg 89%
    06:00 -6°C° 0 mm 3 mps 729 mmHg 88%
    07:00 -6°C° 0 mm 3 mps 730 mmHg 88%
    08:00 -6°C° 0 mm 3 mps 731 mmHg 85%
    09:00 -6°C° 0 mm 3 mps 732 mmHg 83%
    10:00 -6°C° 0 mm 3 mps 733 mmHg 80%
    11:00 -6°C° 0 mm 3 mps 734 mmHg 78%
    12:00 -5°C° 0 mm 4 mps 735 mmHg 75%
    13:00 -5°C° 0 mm 4 mps 735 mmHg 73%
    14:00 -5°C° 0 mm 4 mps 736 mmHg 73%
    15:00 -5°C° 0 mm 4 mps 736 mmHg 73%
    16:00 -7°C° 0 mm 4 mps 737 mmHg 73%
    17:00 -7°C° 0 mm 4 mps 738 mmHg 75%
    18:00 -8°C° 0 mm 4 mps 739 mmHg 76%
    19:00 -7°C° 0 mm 3 mps 740 mmHg 77%
    20:00 -8°C° 0 mm 3 mps 740 mmHg 79%
    21:00 -7°C° 0 mm 2 mps 741 mmHg 80%
    22:00 -8°C° 0 mm 2 mps 742 mmHg 81%
    23:00 -8°C° 0 mm 2 mps 742 mmHg 82%

    Day after tomorrow, 19 February, Tuesday

    Time Temperature Precipitation Wind Pressure Humidity
    00:00 -8°C° 0 mm 2 mps 742 mmHg 82%
    01:00 -9°C° 0 mm 2 mps 742 mmHg 83%
    02:00 -9°C° 0 mm 2 mps 743 mmHg 83%
    03:00 -8°C° 0 mm 1 mps 743 mmHg 83%
    04:00 -9°C° 0 mm 1 mps 743 mmHg 83%
    05:00 -9°C° 0 mm 1 mps 744 mmHg 84%
    06:00 -9°C° 0 mm 0 mps 744 mmHg 84%
    07:00 -9°C° 0 mm 0 mps 745 mmHg 84%
    08:00 -8°C° 0 mm 0 mps 745 mmHg 77%
    09:00 -6°C° 0 mm 0 mps 746 mmHg 70%
    10:00 -5°C° 0 mm 0 mps 746 mmHg 63%
    11:00 -4°C° 0 mm 0 mps 746 mmHg 59%
    12:00 -2°C° 0 mm 1 mps 746 mmHg 56%
    13:00 -1°C° 0 mm 1 mps 746 mmHg 52%
    14:00 -1°C° 0 mm 1 mps 745 mmHg 51%
    15:00 -1°C° 0 mm 1 mps 744 mmHg 50%
    16:00 -1°C° 0 mm 0 mps 744 mmHg 50%
    17:00 -1°C° 0 mm 1 mps 743 mmHg 56%
    18:00 -2°C° 0 mm 1 mps 743 mmHg 62%
    19:00 -5°C° 0 mm 2 mps 743 mmHg 68%
    20:00 -5°C° 0 mm 2 mps 743 mmHg 69%
    21:00 -5°C° 0 mm 2 mps 743 mmHg 70%
    22:00 -5°C° 0 mm 2 mps 743 mmHg 72%
    23:00 -5°C° 0 mm 2 mps 742 mmHg 71%

    20 February, Wednesday

    Time Temperature Precipitation Wind Pressure Humidity
    00:00 -6°C° 0 mm 3 mps 741 mmHg 70%
    01:00 -6°C° 0 mm 3 mps 741 mmHg 70%
    02:00 -6°C° 0 mm 3 mps 740 mmHg 69%
    03:00 -6°C° 0 mm 3 mps 739 mmHg 68%
    04:00 -7°C° 0 mm 4 mps 738 mmHg 67%
    05:00 -7°C° 0.2 mm 4 mps 737 mmHg 72%
    06:00 -5°C° 0.2 mm 4 mps 736 mmHg 77%
    07:00 -5°C° 0.2 mm 4 mps 735 mmHg 82%
    08:00 -5°C° 0.1 mm 5 mps 735 mmHg 82%
    09:00 -5°C° 0.1 mm 5 mps 734 mmHg 82%
    10:00 -4°C° 0.1 mm 6 mps 733 mmHg 81%
    11:00 -2°C° 0.1 mm 5 mps 732 mmHg 84%
    12:00 -1°C° 0.1 mm 5 mps 731 mmHg 87%
    13:00 0°C° 0.1 mm 5 mps 730 mmHg 90%
    14:00 +1°C° 0.1 mm 5 mps 730 mmHg 92%
    15:00 +1°C° 0.1 mm 5 mps 729 mmHg 94%
    16:00 +2°C° 0.1 mm 5 mps 728 mmHg 96%
    17:00 +3°C° 0.2 mm 4 mps 728 mmHg 96%
    18:00 +3°C° 0.2 mm 4 mps 728 mmHg 97%
    19:00 +3°C° 0.2 mm 4 mps 728 mmHg 97%
    20:00 +3°C° 0.1 mm 4 mps 729 mmHg 97%
    21:00 +3°C° 0.1 mm 3 mps 729 mmHg 97%
    22:00 +2°C° 0.1 mm 3 mps 730 mmHg 97%
    23:00 +2°C° 0 mm 3 mps 730 mmHg 97%

    21 February, Thursday

    Time Temperature Precipitation Wind Pressure Humidity
    00:00 +1°C° 0 mm 3 mps 731 mmHg 96%
    01:00 0°C° 0 mm 3 mps 731 mmHg 96%
    02:00 0°C° 0 mm 3 mps 732 mmHg 96%
    03:00 -1°C° 0 mm 3 mps 732 mmHg 96%
    04:00 -1°C° 0 mm 3 mps 733 mmHg 97%
    05:00 -2°C° 0 mm 3 mps 734 mmHg 95%
    06:00 -2°C° 0 mm 3 mps 734 mmHg 93%
    07:00 -3°C° 0 mm 4 mps 735 mmHg 91%
    08:00 -2°C° 0 mm 3 mps 736 mmHg 88%
    09:00 -2°C° 0 mm 3 mps 737 mmHg 84%
    10:00 -2°C° 0 mm 3 mps 737 mmHg 81%
    11:00 -1°C° 0 mm 3 mps 737 mmHg 77%
    12:00 0°C° 0 mm 3 mps 737 mmHg 73%
    13:00 +2°C° 0 mm 2 mps 738 mmHg 69%
    14:00 +1°C° 0 mm 2 mps 737 mmHg 70%
    15:00 +1°C° 0 mm 2 mps 737 mmHg 70%
    16:00 +1°C° 0 mm 2 mps 737 mmHg 71%
    17:00 -1°C° 0 mm 2 mps 738 mmHg 75%
    18:00 -2°C° 0 mm 2 mps 738 mmHg 79%
    19:00 0°C° 0 mm 1 mps 739 mmHg 84%
    20:00 -3°C° 0 mm 2 mps 739 mmHg 84%
    21:00 -3°C° 0 mm 2 mps 738 mmHg 85%
    22:00 -3°C° 0 mm 2 mps 738 mmHg 86%
    23:00 -3°C° 0 mm 2 mps 738 mmHg 86%

    22 February, Friday

    Time Temperature Precipitation Wind Pressure Humidity
    00:00 -3°C° 0 mm 2 mps 739 mmHg 87%
    01:00 -3°C° 0 mm 2 mps 739 mmHg 87%
    02:00 -3°C° 0 mm 2 mps 739 mmHg 87%
    03:00 -3°C° 0 mm 2 mps 738 mmHg 87%
    04:00 -3°C° 0 mm 2 mps 738 mmHg 86%
    05:00 -3°C° 0 mm 2 mps 738 mmHg 85%
    06:00 -3°C° 0 mm 2 mps 738 mmHg 85%
    07:00 -3°C° 0 mm 2 mps 738 mmHg 84%
    08:00 -2°C° 0 mm 2 mps 738 mmHg 79%
    09:00 -1°C° 0 mm 2 mps 738 mmHg 75%
    10:00 +2°C° 0 mm 1 mps 739 mmHg 70%
    11:00 +4°C° 0 mm 1 mps 738 mmHg 65%
    12:00 +5°C° 0 mm 1 mps 738 mmHg 60%
    13:00 +7°C° 0 mm 1 mps 738 mmHg 56%
    14:00 +7°C° 0 mm 1 mps 738 mmHg 57%
    15:00 +7°C° 0 mm 1 mps 737 mmHg 59%
    16:00 +7°C° 0 mm 1 mps 737 mmHg 60%
    17:00 +5°C° 0 mm 1 mps 737 mmHg 69%
    18:00 +2°C° 0 mm 2 mps 738 mmHg 78%
    19:00 -1°C° 0 mm 2 mps 738 mmHg 87%
    20:00 -2°C° 0 mm 2 mps 738 mmHg 88%
    21:00 0°C° 0 mm 1 mps 738 mmHg 90%
    22:00 -1°C° 0 mm 1 mps 738 mmHg 91%
    23:00 -1°C° 0 mm 1 mps 738 mmHg 90%
    Show more